Location: Azat
(46.0765°N, 1.7600°E)
Time: 21:44:02
(UTC+00:00)

ERBS - Pass Details

Date: 09 April 2020
Orbit: 410 x 426 km, 57.0° (Epoch: 25 May)

Event Time Altitude Azimuth Distance (km) Brightness Sun altitude
Rises 20:08:44 0° 312° (NW) 2,393 7.8 -16.3°
Reaches altitude 10° 20:10:53 10° 318° (NW) 1,525 6.3 -16.6°
Maximum altitude 20:14:12 48° 34° (NE) 568 2.8 -17.1°
Enters shadow 20:14:58 39° 76° (ENE) 658 2.9 -17.2°
